Flag for Canada Weather past 2 weeks in Annapolis County, Nova Scotia, Canada

Now
45 °F

Cool.


Feels Like: 43 °F
Forecast: 46 / 59 °F
Wind: 5 mph from Southwest

Location: Kejimkujik 1

Current Time: May 7, 2015 at 3:40:20 AM

Latest Report: May 7, 2015 at 3:00 AM


Visibility: N/A

Pressure: 30.06 "Hg

Humidity: 74%

Dew point: 37 °F

Location of Annapolis CountyLocation

Historic Weather in Annapolis County — Graph

°F

Annapolis County temperature yesterday

Maximum temperature yesterday: 64 °F (at 5:00 PM)
Minimum temperature yesterday: 39 °F (at 6:00 AM)
Average temperature yesterday: 53 °F

Past Weeks' High & Low Weather Summary

 TemperatureHumidityPressure
High74 °F (May 4, 3:00 PM)100% (Apr 22, 9:00 AM)30.20 "Hg (Apr 22, 9:00 AM)
Low27 °F (Apr 26, 6:00 AM)22% (May 6, 1:00 PM)29.29 "Hg (Apr 28, 7:00 PM)
Average43 °F78%29.78 "Hg
* Reported Apr 22 2:00 AM — May 7 2:00 AM, Annapolis County, Weather by CustomWeather, © 2015

Note: Actual official high and low records may vary slightly from our data, if they occured in-between our weather recording intervals... More about our weather records

Advertising

Annapolis County weather history for previous 24 hours

 ConditionsComfort  
Time TempWeatherWind HumidityBarometerVisibility
2:00 AM
Thu, May 7
47 °FCool.5 mph70%30.06 "HgN/A
1:00 AM49 °FCool.6 mph65%30.07 "HgN/A
12:00 AM51 °FCool.7 mph54%30.08 "HgN/A
11:00 PM
Wed, May 6
52 °FCool.7 mph52%30.09 "HgN/A
10:00 PM53 °FCool.7 mph49%30.08 "HgN/A
9:00 PM54 °FCool.7 mph46%30.07 "HgN/A
8:00 PM57 °FRefreshingly cool.8 mph38%30.06 "HgN/A
7:00 PM59 °FRefreshingly cool.8 mph38%30.07 "HgN/A
6:00 PM62 °FRefreshingly cool.12 mph29%30.07 "HgN/A
5:00 PM64 °FMild.10 mph29%30.08 "HgN/A
4:00 PM64 °FMild.12 mph25%30.09 "HgN/A
3:00 PM62 °FMild.12 mph25%30.12 "HgN/A
2:00 PM61 °FRefreshingly cool.12 mph26%30.13 "HgN/A
1:00 PM60 °FRefreshingly cool.12 mph22%30.14 "HgN/A
12:00 PM61 °FRefreshingly cool.9 mph29%30.16 "HgN/A
11:00 AM56 °FRefreshingly cool.9 mph34%30.17 "HgN/A
10:00 AM57 °FRefreshingly cool.6 mph37%30.19 "HgN/A
9:00 AM53 °FCool.6 mph51%30.20 "HgN/A
8:00 AM45 °FCool.3 mph67%30.20 "HgN/A
7:00 AM40 °FChilly.2 mph79%30.19 "HgN/A
6:00 AM39 °FChilly.3 mph73%30.17 "HgN/A
5:00 AM41 °FQuite cool.3 mph73%30.17 "HgN/A
4:00 AM42 °FQuite cool.3 mph67%30.17 "HgN/A
3:00 AM43 °FQuite cool.3 mph65%30.17 "HgN/A
Weather by CustomWeather, © 2015

See weather overviewHow to use our weather pages